Hourly Weather Roundup
Issued by NWS

Current Version | Previous Version | Text Only | Print | Product List | Glossary On
Versions: 1 2 3 4 5 6 7 8 9 10 11 12 13 14 15 16 17 18 19 20 21 22 23 24 25 26 27 28 29 30 31 32 33 34 35 36 37 38 39 40 41 42 43 44 45 46 47 48 49 50
744
NZUS43 KILX 251210
HWRCRS

NWR Hourly Weather Roundup
National Weather Service Lincoln IL
700 AM CDT TUE APR 25 2017


CITY           SKY/WX    TMP DP  RH WIND       PRES   REMARKS
Champaign      MOSUNNY   53  46  77 SE8       29.73S
Lawrenceville  SUNNY     55  53  93 SE5       29.76S
Peoria         PTCLDY    54  42  64 S5        29.68R
Springfield    CLOUDY    57  45  64 S9        29.69S
$$


CITY           SKY/WX    TMP DP  RH WIND       PRES   REMARKS
Bloomington    MOCLDY    52  41  66 SE8       29.71S
Danville       CLOUDY    55  51  87 S3        29.73R
Decatur        CLOUDY    52  45  77 SE5       29.71S
Effingham      CLOUDY    49  48  95 E5        29.74S
Flora          CLEAR     50  48  93 CALM      29.74S
Galesburg      CLOUDY    53  42  66 S5        29.64R
Jacksonville   CLOUDY    57  46  65 S8        29.66R
Lacon          CLOUDY    52  37  57 SE5       29.66F
La Salle       CLOUDY    54  38  55 SE8       29.68S
Lincoln        CLOUDY    51  42  72 SE3       29.69S
Litchfield     CLEAR     51  45  78 SE7       29.69S

CITY           SKY/WX    TMP DP  RH WIND       PRES   REMARKS
Macomb         PTCLDY    55  43  63 S10       29.65S
Mattoon        MOSUNNY   52  48  86 SE7       29.72S
Moline         CLOUDY    54  39  57 S8        29.61S
Olney          CLOUDY    52  52 100 CALM      29.75R
Paris          SUNNY     55  52  89 SE6       29.76R
Pontiac        PTSUNNY   54  47  77 SE7       29.71S
Quincy         CLEAR     57  42  57 S10       29.63R
Rantoul        PTSUNNY   53  49  84 SE6       29.72F
Robinson       SUNNY     52  50  95 CALM      29.76S
Taylorville    PTCLDY    52  45  75 SE6       29.70S
Terre Haute    SUNNY     55  51  86 SE6       29.76S
$$


CITY           SKY/WX    TMP DP  RH WIND       PRES   REMARKS
Burlington     CLEAR     55  43  63 S9        29.61R
Chicago        CLOUDY    57  49  74 SE10      29.70S
Des Moines     CLOUDY    57  41  55 S6        29.54R
Evansville     SUNNY     56  53  90 CALM      29.77R
Indianapolis   MOSUNNY   56  52  86 SE7       29.78S
Kansas City    CLOUDY    60  47  61 SE10      29.50S
Milwaukee      CLOUDY    53  44  71 SE12      29.70F
St Louis       MOCLDY    60  49  66 SE9       29.68S
$$





USA.gov is the U.S. government's official web portal to all federal, state and local government web resources and services.